User: anonymous   Login
Location: Caltech
(34.1382°N, 118.1253°W)
Time: 08:07:35
(UTC-07:00)
Language:

Cosmos 1606 - Orbit

View from above orbital plane
View from above orbital plane
View from above satellite
View from above satellite

Ground track
Ground track

The orbit data is extracted from the following two-line orbital elements,

1 15369U 84111A   17086.84113889 +.00001209 +00000-0 +62056-4 0  9998
2 15369 082.5302 202.5688 0018188 175.3399 184.8006 15.15441306768143
Epoch (UTC): 27 March 2017 20:11:14
Eccentricity: 0.0018188
inclination: 82.5302°
perigee height: 507 km
apogee height: 532 km
right ascension of ascending node: 202.5688°
argument of perigee: 175.3399°
revolutions per day: 15.15441306
mean anomaly at epoch: 184.8006°
orbit number at epoch: 76814

The dashed part of the orbit path shows where the satellite is in the earth's shadow,  

DLR